1495573200.99,31165,15.56,73954.5,1.31,-0.23,-0.11,0,*7F
1495573202.22,31166,15.56,73952.0,1.31,-0.27,-0.23,0,*79
1495573203.45,31167,15.56,73954.8,1.33,-0.27,-0.15,0,*7F
1495573204.66,31168,15.56,73952.0,1.31,-0.23,-0.15,0,*76
1495573205.87,31169,15.56,73952.0,1.33,-0.15,-0.15,0,*70
1495573207.1,31170,15.56,73954.3,1.33,-0.23,-0.11,0,*79
1495573208.31,31171,15.56,73952.8,1.33,-0.15,-0.11,0,*7D
1495573209.52,31172,15.56,73958.5,1.33,-0.15,-0.11,0,*7E
1495573210.73,31173,15.56,73952.0,1.33,-0.15,-0.11,0,*7F
1495573211.94,31174,15.56,73954.8,1.33,-0.11,-0.03,0,*4F
1495573213.12,31175,15.56,73954.3,1.31,-0.11,-0.03,0,*4C
1495573214.33,31176,15.56,73952.8,1.33,-0.11,-0.11,0,*7E
1495573215.55,31177,15.56,73954.5,1.33,-0.11,-0.11,0,*7F
1495573216.73,31178,15.5,73950.5,1.31,-0.11,-0.03,0,*41
1495573217.94,31179,15.5,73954.5,1.33,-0.11,-0.11,0,*71
1495573219.14,31180,15.56,73954.0,1.33,-0.11,-0.03,0,*44
1495573220.33,31181,15.56,73952.0,1.31,-0.11,-0.03,0,*47
1495573221.53,31182,15.5,73952.3,1.33,-0.03,-0.11,0,*46
1495573222.74,31183,15.56,73954.5,1.33,-0.11,-0.03,0,*47
1495573223.94,31184,15.56,73952.5,1.33,-0.11,-0.03,0,*40
1495573225.15,31185,15.5,73952.8,1.33,-0.11,-0.03,0,*41
1495573226.36,31186,15.56,73954.8,1.33,-0.11,-0.11,0,*71
1495573227.54,31187,15.5,73952.5,1.31,-0.11,-0.03,0,*41
1495573228.75,31188,15.56,73952.0,1.33,-0.11,-0.11,0,*7F
1495573229.97,31189,15.56,73952.8,1.33,-0.11,-0.11,0,*7E
1495573231.18,31190,15.56,73952.0,1.33,-0.11,-0.11,0,*76
1495573232.39,31191,15.56,73954.8,1.33,-0.11,-0.11,0,*77
1495573233.58,31192,15.56,73954.3,1.31,-0.03,-0.11,0,*45
1495573234.76,31193,15.5,73954.5,1.31,-0.11,-0.03,0,*44
1495573235.97,31194,15.56,73958.0,1.33,-0.11,-0.03,0,*41
1495573237.16,31195,15.56,73958.8,1.33,-0.03,-0.03,0,*73
1495573238.37,31196,15.56,73958.8,1.33,-0.11,-0.03,0,*43
1495573239.58,31197,15.56,73956.8,1.33,-0.11,-0.11,0,*71
1495573240.78,31198,15.56,73954.5,1.33,-0.11,-0.03,0,*4D
1495573242.0,31199,15.56,73952.8,1.33,-0.11,-0.11,0,*7F
1495573243.21,31200,15.56,73952.8,1.33,-0.15,-0.11,0,*78
1495573244.42,31201,15.56,73952.8,1.33,-0.15,-0.11,0,*79
1495573245.62,31202,15.56,73952.8,1.33,-0.11,-0.03,0,*4D
1495573246.82,31203,15.56,73952.3,1.33,-0.11,-0.03,0,*4C
1495573248.02,31204,15.56,73952.0,1.33,-0.03,-0.03,0,*78
1495573249.23,31205,15.56,73952.3,1.33,-0.11,-0.03,0,*4A
1495573250.43,31206,15.5,73952.0,1.33,-0.11,-0.03,0,*49
1495573251.63,31207,15.56,73956.0,1.33,-0.11,-0.03,0,*48
1495573252.85,31208,15.56,73956.8,1.33,-0.11,-0.11,0,*74
1495573254.06,31209,15.56,73954.0,1.33,-0.11,-0.11,0,*75
1495573255.23,31210,15.56,73952.8,1.35,-0.07,-0.07,0,*7B
1495573256.39,31211,15.56,73954.0,1.35,-0.07,0.01,0,*51
1495573257.57,31212,15.56,73952.0,1.35,-0.11,-0.07,0,*4E
1495573258.75,31213,15.5,73952.5,1.35,-0.11,-0.07,0,*4F
1495573259.96,31214,15.56,73954.3,1.33,-0.15,-0.11,0,*7D
1495573261.16,31215,15.5,73948.8,1.33,-0.15,-0.03,0,*4F
1495573262.37,31216,15.5,73952.8,1.33,-0.15,-0.11,0,*7F
1495573263.58,31217,15.5,73952.0,1.33,-0.11,-0.03,0,*49
1495573264.79,31218,15.5,73954.5,1.33,-0.11,-0.11,0,*75
1495573266.0,31219,15.5,73950.5,1.33,-0.11,-0.11,0,*74
1495573267.24,31220,15.5,73954.5,1.33,-0.23,-0.11,0,*7F
1495573268.46,31221,15.5,73952.5,1.33,-0.15,-0.23,0,*7A
1495573269.69,31222,15.56,73954.5,1.33,-0.15,-0.23,0,*79
1495573270.9,31223,15.5,73952.8,1.33,-0.15,-0.15,0,*7D
1495573272.11,31224,15.56,73954.8,1.33,-0.15,-0.15,0,*7A
1495573273.34,31225,15.5,73952.5,1.33,-0.23,-0.15,0,*7E
1495573274.57,31226,15.5,73952.0,1.33,-0.29,-0.27,0,*76
1495573275.8,31227,15.5,73954.5,1.33,-0.27,-0.15,0,*78
1495573277.01,31228,15.56,73956.5,1.33,-0.15,-0.15,0,*76
1495573278.22,31229,15.5,73952.3,1.33,-0.15,-0.15,0,*77
1495573279.4,31230,15.56,73952.0,1.35,-0.19,-0.11,0,*71
1495573280.59,31231,15.56,73956.3,1.35,-0.19,-0.19,0,*78
1495573281.84,31232,15.56,73956.5,1.33,-0.23,-0.23,0,*7D
1495573283.07,31233,15.56,73956.3,1.33,-0.23,-0.15,0,*79
1495573284.31,31234,15.56,73956.5,1.33,-0.27,-0.15,0,*7A
1495573285.53,31235,15.56,73954.8,1.33,-0.29,-0.23,0,*70
1495573286.73,31236,15.5,73952.0,1.33,-0.49,-0.29,0,*7F
1495573287.93,31237,15.5,73954.5,1.33,-0.37,-0.29,0,*77
1495573289.14,31238,15.56,73960.5,1.33,-0.41,-0.29,0,*79
1495573290.37,31239,15.56,73956.0,1.33,-0.41,-0.23,0,*72
1495573291.6,31240,15.56,73956.0,1.33,-0.41,-0.23,0,*7C
1495573292.81,31241,15.56,73958.0,1.33,-0.41,-0.15,0,*78
1495573294.05,31242,15.5,73954.8,1.33,-0.41,-0.23,0,*7E
1495573295.28,31243,15.56,73956.5,1.33,-0.41,-0.23,0,*7F
1495573296.49,31244,15.5,73954.5,1.33,-0.41,-0.15,0,*7D
1495573297.72,31245,15.56,73954.0,1.33,-0.53,-0.27,0,*7E
1495573298.92,31246,15.5,73954.5,1.35,-0.49,-0.23,0,*74
1495573300.12,31247,15.5,73952.3,1.31,-0.49,-0.27,0,*75
1495573301.36,31248,15.56,73958.0,1.33,-0.41,-0.27,0,*70
1495573302.58,31249,15.56,73954.8,1.33,-0.49,-0.23,0,*7D
1495573303.78,31250,15.56,73958.5,1.33,-0.53,-0.29,0,*74
1495573305.01,31251,15.5,73952.0,1.33,-0.53,-0.27,0,*7B
1495573306.24,31252,15.56,73958.0,1.33,-0.53,-0.23,0,*7C
1495573307.46,31253,15.5,73952.3,1.33,-0.61,-0.27,0,*78
1495573308.67,31254,15.56,73954.8,1.33,-0.65,-0.29,0,*75
1495573309.86,31255,15.56,73958.5,1.33,-0.61,-0.29,0,*70
1495573311.06,31256,15.56,73956.5,1.33,-0.61,-0.29,0,*73
1495573312.24,31257,15.56,73956.0,1.35,-0.57,-0.33,0,*7A
1495573313.43,31258,15.56,73954.8,1.35,-0.57,-0.33,0,*75
1495573314.6,31259,15.56,73954.3,1.35,-0.61,-0.33,0,*71
1495573315.78,31260,15.56,73956.0,1.35,-0.69,-0.37,0,*77
1495573316.96,31261,15.56,73954.5,1.35,-0.61,-0.37,0,*7E
1495573318.17,31262,15.56,73952.5,1.33,-0.73,-0.49,0,*71
1495573319.35,31263,15.56,73954.5,1.35,-0.73,-0.61,0,*7C
1495573320.53,31264,15.56,73956.8,1.35,-0.81,-0.61,0,*76
1495573321.71,31265,15.56,73956.0,1.35,-0.73,-0.57,0,*7F
1495573322.92,31266,15.56,73956.3,1.33,-0.77,-0.61,0,*7B
1495573324.12,31267,15.56,73958.8,1.31,-0.85,-0.65,0,*71
1495573325.32,31268,15.5,73952.5,1.33,-0.77,-0.65,0,*71
1495573326.52,31269,15.56,73956.3,1.33,-0.77,-0.61,0,*74
1495573327.7,31270,15.56,73952.0,1.31,-0.77,-0.65,0,*7A
1495573328.91,31271,15.56,73956.5,1.33,-0.73,-0.65,0,*7D
1495573330.11,31272,15.5,73954.5,1.33,-0.77,-0.65,0,*7A
1495573331.34,31273,15.56,73954.5,1.33,-0.85,-0.77,0,*75
1495573332.59,31274,15.56,73952.5,1.33,-0.89,-0.89,0,*7F
1495573333.85,31275,15.56,73954.3,1.33,-0.97,-0.97,0,*7E
1495573335.08,31276,15.56,73954.3,1.31,-0.97,-0.89,0,*70
1495573336.33,31277,15.56,73954.0,1.33,-0.97,-0.89,0,*73
1495573337.59,31278,15.56,73958.5,1.33,-0.97,-0.85,0,*70
1495573338.84,31279,15.56,73954.8,1.33,-1.01,-0.89,0,*43
1495573340.1,31280,15.56,73956.5,1.33,-1.01,-0.89,0,*45
1495573341.36,31281,15.5,73952.5,1.33,-1.01,-0.89,0,*44
1495573342.6,31282,15.56,73952.0,1.33,-1.17,-1.01,0,*71
1495573343.83,31283,15.56,73954.5,1.33,-1.25,-1.13,0,*72
1495573345.07,31284,15.56,73956.5,1.33,-1.25,-1.01,0,*76
1495573346.29,31285,15.56,73954.8,1.31,-1.29,-1.05,0,*7D
1495573347.53,31286,15.5,73952.5,1.31,-1.35,-1.13,0,*74
1495573348.79,31287,15.56,73954.8,1.33,-1.35,-1.01,0,*74
1495573350.05,31288,15.56,73954.8,1.33,-1.35,-1.01,0,*7B
1495573351.31,31289,15.56,73956.3,1.33,-1.35,-1.05,0,*7E
1495573352.58,31290,15.56,73956.0,1.33,-1.39,-1.01,0,*7E
1495573353.85,31291,15.56,73952.3,1.33,-1.39,-1.01,0,*7F
1495573355.09,31292,15.56,73954.0,1.31,-1.39,-1.01,0,*7E
1495573356.33,31293,15.5,73952.8,1.31,-1.47,-0.97,0,*48
1495573357.57,31294,15.5,73950.5,1.31,-1.47,-1.01,0,*71
1495573358.81,31295,15.5,73952.8,1.31,-1.47,-1.01,0,*70
1495573360.04,31296,15.56,73954.8,1.33,-1.59,-1.01,0,*7E
1495573361.25,31297,15.56,73954.0,1.31,-1.51,-1.01,0,*75
1495573362.48,31298,15.56,73958.3,1.33,-1.59,-1.01,0,*70
1495573363.71,31299,15.56,73954.5,1.33,-1.63,-1.13,0,*7B
1495573364.95,31300,15.56,73952.0,1.33,-1.71,-1.05,0,*7E
1495573366.18,31301,15.5,73954.3,1.33,-1.63,-1.13,0,*7B
1495573367.4,31302,15.56,73954.3,1.31,-1.71,-1.13,0,*79
1495573368.64,31303,15.56,73958.0,1.33,-1.71,-1.13,0,*7A
1495573369.87,31304,15.56,73956.0,1.33,-1.63,-1.13,0,*7E
1495573371.11,31305,15.56,73954.0,1.33,-1.71,-1.13,0,*7C
1495573372.35,31306,15.56,73954.0,1.33,-1.71,-1.05,0,*78
1495573373.54,31307,15.5,73954.5,1.31,-1.63,-1.25,0,*7A
1495573374.73,31308,15.56,73954.8,1.31,-1.71,-1.25,0,*76
1495573375.97,31309,15.5,73952.0,1.33,-1.75,-1.35,0,*70
1495573377.21,31310,15.56,73952.0,1.33,-1.75,-1.35,0,*78
1495573378.45,31311,15.56,73954.8,1.31,-1.83,-1.39,0,*7E
1495573379.7,31312,15.56,73952.8,1.31,-1.83,-1.47,0,*74
1495573380.94,31313,15.56,73952.5,1.33,-1.75,-1.47,0,*7E
1495573382.18,31314,15.56,73954.0,1.31,-1.83,-1.47,0,*72
1495573383.4,31315,15.56,73952.5,1.31,-1.83,-1.59,0,*7C
1495573384.62,31316,15.56,73952.5,1.31,-2.03,-1.71,0,*7E
1495573385.85,31317,15.56,73948.8,1.31,-1.99,-1.71,0,*7F
1495573387.11,31318,15.56,73954.0,1.33,-1.91,-1.87,0,*73
1495573388.38,31319,15.56,73954.3,1.33,-2.03,-1.87,0,*7A
1495573389.62,31320,15.56,73958.3,1.33,-2.15,-2.03,0,*78
1495573390.81,31321,15.5,73952.5,1.31,-2.35,-2.23,0,*7B
1495573392.0,31322,15.56,73954.8,1.31,-2.35,-2.15,0,*7D
1495573393.19,31323,15.56,73952.0,1.31,-2.27,-2.15,0,*7F
1495573394.4,31324,15.5,73952.3,1.33,-2.39,-2.27,0,*74
1495573395.62,31325,15.56,73954.3,1.31,-2.47,-2.35,0,*7D
1495573396.83,31326,15.5,73952.5,1.31,-2.51,-2.35,0,*79
1495573398.07,31327,15.56,73954.0,1.33,-2.59,-2.35,0,*72
1495573399.31,31328,15.56,73952.5,1.33,-2.75,-2.35,0,*73
1495573400.53,31329,15.56,73954.3,1.31,-2.87,-2.51,0,*7F
1495573401.75,31330,15.56,73956.3,1.31,-2.99,-2.51,0,*78
1495573402.98,31331,15.56,73952.8,1.31,-3.03,-2.51,0,*7B
1495573404.17,31332,15.56,73954.5,1.31,-2.99,-2.39,0,*74
1495573405.36,31333,15.56,73954.0,1.31,-3.03,-2.39,0,*77
1495573406.56,31334,15.5,73954.5,1.31,-3.11,-2.39,0,*73
1495573407.75,31335,15.5,73952.8,1.31,-3.15,-2.39,0,*76
1495573408.94,31336,15.5,73954.5,1.31,-3.23,-2.39,0,*70
1495573410.13,31337,15.5,73954.3,1.31,-3.23,-2.39,0,*71
1495573411.32,31338,15.56,73956.0,1.31,-3.27,-2.35,0,*76
1495573412.52,31339,15.5,73954.5,1.31,-3.35,-2.35,0,*74
1495573413.72,31340,15.56,73956.3,1.31,-3.39,-2.35,0,*76
1495573414.91,31341,15.5,73954.0,1.31,-3.35,-2.27,0,*78
1495573416.11,31342,15.56,73958.3,1.31,-3.39,-2.15,0,*76
1495573417.3,31343,15.5,73954.0,1.31,-3.39,-2.15,0,*77
1495573418.52,31344,15.56,73952.0,1.31,-3.43,-2.15,0,*7D
1495573419.76,31345,15.56,73954.8,1.31,-3.43,-2.03,0,*7B
1495573421.01,31346,15.56,73952.3,1.31,-3.43,-2.03,0,*78
1495573422.25,31347,15.56,73954.5,1.31,-3.51,-2.03,0,*7A
1495573423.5,31348,15.56,73954.8,1.31,-3.51,-1.91,0,*7D
1495573424.74,31349,15.5,73954.5,1.31,-3.51,-1.91,0,*7C
1495573425.98,31350,15.56,73958.0,1.33,-3.43,-1.75,0,*7F
1495573427.23,31351,15.56,73956.0,1.33,-3.43,-1.75,0,*7E
1495573428.47,31352,15.5,73952.3,1.31,-3.51,-1.87,0,*71
1495573429.71,31353,15.56,73954.8,1.31,-3.55,-1.87,0,*74
1495573430.96,31354,15.5,73954.5,1.31,-3.51,-1.87,0,*77
1495573432.2,31355,15.5,73954.3,1.31,-3.63,-1.87,0,*77
1495573433.44,31356,15.56,73952.3,1.31,-3.55,-1.87,0,*71
1495573434.71,31357,15.56,73954.0,1.29,-3.67,-1.91,0,*7F
1495573435.98,31358,15.5,73950.8,1.29,-3.59,-1.91,0,*7D
1495573437.25,31359,15.5,73950.5,1.29,-3.59,-1.91,0,*7C
1495573438.49,31360,15.56,73954.0,1.31,-3.51,-1.87,0,*70
1495573439.75,31361,15.5,73952.3,1.31,-3.63,-1.99,0,*7F
1495573441.0,31362,15.5,73950.5,1.29,-3.67,-1.95,0,*7D
1495573442.27,31363,15.5,73952.0,1.29,-3.59,-1.95,0,*71
1495573443.54,31364,15.5,73950.0,1.29,-3.59,-2.03,0,*7A
1495573444.81,31365,15.56,73954.0,1.29,-3.59,-2.07,0,*7F
1495573446.05,31366,15.5,73952.8,1.29,-3.55,-2.15,0,*73
1495573447.3,31367,15.5,73950.3,1.29,-3.59,-2.19,0,*72
1495573448.52,31368,15.56,73952.0,1.27,-3.59,-2.19,0,*73
1495573449.76,31369,15.5,73950.5,1.29,-3.59,-2.27,0,*71
1495573451.01,31370,15.56,73952.0,1.29,-3.59,-2.31,0,*7E
1495573452.25,31371,15.5,73950.8,1.29,-3.67,-2.39,0,*7A
1495573453.49,31372,15.56,73954.3,1.29,-3.71,-2.39,0,*7E
1495573454.73,31373,15.5,73952.3,1.29,-3.71,-2.39,0,*7F
1495573455.98,31374,15.5,73952.8,1.29,-3.79,-2.51,0,*7E
1495573457.24,31375,15.56,73954.0,1.29,-3.83,-2.51,0,*7A
1495573458.49,31376,15.56,73952.3,1.29,-3.91,-2.63,0,*7B
1495573459.72,31377,15.5,73944.8,1.27,-3.95,-2.63,0,*70
1495573460.96,31378,15.5,73950.8,1.29,-4.09,-2.63,0,*73
1495573462.19,31379,15.56,73954.8,1.27,-4.21,-2.67,0,*72
1495573463.37,31380,15.5,73948.5,1.27,-4.45,-2.79,0,*79
1495573464.55,31381,15.5,73948.5,1.27,-4.49,-2.79,0,*74
1495573465.76,31382,15.5,73950.8,1.29,-4.57,-2.79,0,*76
1495573466.96,31383,15.56,73954.8,1.27,-4.57,-2.79,0,*79
1495573468.16,31384,15.5,73948.5,1.27,-4.73,-2.79,0,*78
1495573469.37,31385,15.56,73954.3,1.27,-4.81,-2.79,0,*74
1495573470.6,31386,15.5,73950.3,1.29,-4.93,-2.83,0,*7F
1495573471.84,31387,15.5,73950.0,1.29,-5.11,-2.83,0,*75
1495573473.05,31388,15.5,73948.8,1.27,-5.15,-2.79,0,*75
1495573474.29,31389,15.56,73950.5,1.29,-5.27,-2.79,0,*7B
1495573475.48,31390,15.5,73950.0,1.27,-5.35,-2.79,0,*7E
1495573476.67,31391,15.5,73948.3,1.27,-5.39,-2.83,0,*76
1495573477.91,31392,15.56,73952.5,1.29,-5.47,-2.71,0,*7F
1495573479.13,31393,15.56,73952.8,1.29,-5.51,-2.79,0,*71
1495573480.37,31394,15.5,73950.5,1.27,-5.61,-2.67,0,*74
1495573481.62,31395,15.56,73950.3,1.27,-5.65,-2.67,0,*71
1495573482.88,31396,15.56,73950.3,1.29,-5.65,-2.71,0,*7B
1495573484.15,31397,15.56,73950.8,1.29,-5.65,-2.63,0,*79
1495573485.42,31398,15.5,73948.0,1.29,-5.61,-2.55,0,*77
1495573486.66,31399,15.5,73948.5,1.27,-5.61,-2.55,0,*78
1495573487.91,31400,15.56,73950.8,1.27,-5.65,-2.55,0,*7B
1495573489.17,31401,15.5,73950.8,1.29,-5.61,-2.55,0,*70
1495573490.42,31402,15.5,73948.3,1.27,-5.65,-2.55,0,*79
1495573491.66,31403,15.5,73950.0,1.27,-5.61,-2.55,0,*7C
1495573492.88,31404,15.5,73948.0,1.27,-5.51,-2.55,0,*78
1495573494.13,31405,15.56,73948.5,1.29,-5.51,-2.55,0,*77
1495573495.35,31406,15.5,73948.3,1.27,-5.47,-2.55,0,*7D
1495573496.57,31407,15.5,73948.5,1.27,-5.47,-2.55,0,*7C
1495573497.81,31408,15.5,73950.3,1.29,-5.39,-2.55,0,*74
1495573499.03,31409,15.56,73950.5,1.27,-5.35,-2.55,0,*77
1495573500.25,31410,15.5,73950.5,1.27,-5.35,-2.63,0,*7A
1495573501.5,31411,15.56,73950.5,1.27,-5.27,-2.63,0,*78
1495573502.74,31412,15.5,73948.3,1.27,-5.27,-2.67,0,*7F
1495573503.99,31413,15.5,73946.5,1.27,-5.27,-2.71,0,*79
1495573505.23,31414,15.5,73948.0,1.27,-5.23,-2.67,0,*7D
1495573506.5,31415,15.5,73950.8,1.29,-5.11,-2.63,0,*77
1495573507.74,31416,15.5,73948.0,1.27,-5.11,-2.67,0,*7E
1495573508.98,31417,15.5,73948.5,1.27,-5.11,-2.67,0,*7F
1495573510.23,31418,15.5,73950.0,1.27,-5.15,-2.67,0,*74
1495573511.48,31419,15.5,73950.5,1.27,-5.23,-2.63,0,*74
1495573512.72,31420,15.5,73950.0,1.27,-5.23,-2.67,0,*7A
1495573513.97,31421,15.5,73948.8,1.27,-5.27,-2.63,0,*7B
1495573515.19,31422,15.5,73948.0,1.27,-5.35,-2.63,0,*7B
1495573516.41,31423,15.56,73950.8,1.27,-5.35,-2.51,0,*7B
1495573517.6,31424,15.56,73948.3,1.27,-5.39,-2.43,0,*73
1495573518.81,31425,15.5,73950.5,1.29,-5.39,-2.43,0,*7C
1495573520.0,31426,15.5,73950.8,1.27,-5.39,-2.43,0,*71
1495573521.2,31427,15.5,73950.8,1.27,-5.51,-2.31,0,*7B
1495573522.4,31428,15.5,73948.5,1.27,-5.51,-2.31,0,*74
1495573523.61,31429,15.56,73952.0,1.27,-5.61,-2.19,0,*7C
1495573524.85,31430,15.5,73950.5,1.25,-5.69,-2.23,0,*77
1495573526.1,31431,15.5,73950.8,1.27,-5.61,-2.07,0,*7A
1495573527.35,31432,15.56,73954.8,1.25,-5.55,-2.07,0,*7C
1495573528.6,31433,15.5,73950.8,1.25,-5.55,-1.99,0,*79
1495573529.79,31434,15.5,73948.8,1.27,-5.47,-1.79,0,*71
1495573531.01,31435,15.5,73950.5,1.25,-5.39,-1.71,0,*73
1495573532.23,31436,15.5,73948.0,1.25,-5.43,-1.71,0,*7D
1495573533.47,31437,15.5,73950.5,1.25,-5.27,-1.67,0,*79
1495573534.71,31438,15.5,73948.8,1.25,-5.19,-1.59,0,*76
1495573535.95,31439,15.56,73952.5,1.25,-5.15,-1.59,0,*7B
1495573537.22,31440,15.5,73950.3,1.25,-5.03,-1.47,0,*7D
1495573538.45,31441,15.5,73948.8,1.25,-4.99,-1.47,0,*7E
1495573539.71,31442,15.5,73950.8,1.25,-4.77,-1.35,0,*78
1495573540.92,31443,15.5,73950.5,1.27,-4.73,-1.33,0,*79
1495573542.11,31444,15.5,73950.0,1.27,-4.61,-1.29,0,*76
1495573543.32,31445,15.5,73952.3,1.25,-4.53,-1.21,0,*7C
1495573544.53,31446,15.56,73952.8,1.25,-4.49,-1.25,0,*70
1495573545.72,31447,15.5,73950.3,1.27,-4.29,-1.17,0,*74
1495573546.94,31448,15.56,73952.0,1.25,-4.25,-1.21,0,*70
1495573548.15,31449,15.5,73946.5,1.27,-4.17,-1.09,0,*78
1495573549.35,31450,15.5,73950.3,1.27,-3.95,-1.17,0,*72
1495573550.57,31451,15.5,73950.0,1.27,-3.91,-1.09,0,*78
1495573551.8,31452,15.56,73954.0,1.27,-3.79,-1.09,0,*7D
1495573553.06,31453,15.56,73950.3,1.25,-3.63,-1.09,0,*75
1495573554.3,31454,15.5,73948.0,1.27,-3.59,-1.09,0,*79
1495573555.54,31455,15.5,73950.0,1.27,-3.43,-1.01,0,*7B
1495573556.76,31456,15.5,73948.8,1.27,-3.39,-1.01,0,*75
1495573557.98,31457,15.5,73948.3,1.27,-3.27,-1.05,0,*7F
1495573559.19,31458,15.5,73948.5,1.27,-3.07,-1.01,0,*76
1495573560.41,31459,15.56,73954.3,1.27,-3.07,-1.01,0,*77
1495573561.63,31460,15.56,73950.8,1.27,-2.95,-1.01,0,*77
1495573562.87,31461,15.5,73950.0,1.27,-2.71,-1.01,0,*7C
1495573564.1,31462,15.5,73946.8,1.27,-2.71,-0.93,0,*45
1495573565.33,31463,15.5,73950.0,1.27,-2.63,-0.93,0,*47
1495573566.57,31464,15.5,73944.3,1.27,-2.51,-0.93,0,*41
1495573567.8,31465,15.5,73946.3,1.27,-2.51,-0.89,0,*4B
1495573568.98,31466,15.5,73944.5,1.27,-2.39,-0.81,0,*4E
1495573570.21,31467,15.5,73948.5,1.25,-2.43,-0.85,0,*44
1495573571.44,31468,15.5,73948.8,1.25,-2.43,-0.93,0,*4C
1495573572.67,31469,15.56,73950.0,1.25,-2.31,-0.93,0,*48
1495573573.88,31470,15.5,73948.5,1.27,-2.31,-0.89,0,*49
1495573575.09,31471,15.5,73948.0,1.27,-2.27,-0.89,0,*4F
1495573576.29,31472,15.5,73948.8,1.27,-2.15,-0.89,0,*4D
1495573577.5,31473,15.5,73948.5,1.27,-2.19,-0.93,0,*4B
1495573578.73,31474,15.5,73950.0,1.27,-2.03,-0.89,0,*4C
1495573579.94,31475,15.5,73948.3,1.27,-1.95,-0.81,0,*49
1495573581.15,31476,15.5,73948.5,1.27,-1.91,-0.77,0,*47
1495573582.36,31477,15.5,73950.0,1.27,-1.91,-0.81,0,*4F
1495573583.59,31478,15.56,73948.3,1.27,-1.91,-0.89,0,*48
1495573584.78,31479,15.5,73948.5,1.27,-1.79,-0.77,0,*4E
1495573585.97,31480,15.56,73948.3,1.27,-1.67,-0.69,0,*48
1495573587.15,31481,15.56,73948.3,1.27,-1.67,-0.77,0,*46
1495573588.34,31482,15.56,73948.3,1.27,-1.67,-0.77,0,*45
1495573589.55,31483,15.5,73946.8,1.29,-1.75,-0.77,0,*49
1495573590.74,31484,15.5,73950.8,1.27,-1.75,-0.77,0,*40
1495573591.93,31485,15.5,73946.5,1.27,-1.67,-0.69,0,*4D
1495573593.11,31486,15.5,73950.3,1.27,-1.67,-0.77,0,*41
1495573594.32,31487,15.5,73948.3,1.29,-1.67,-0.69,0,*41
1495573595.51,31488,15.5,73948.0,1.27,-1.67,-0.77,0,*4F
1495573596.7,31489,15.5,73948.3,1.27,-1.75,-0.77,0,*4D
1495573597.88,31490,15.5,73950.3,1.27,-1.75,-0.69,0,*4A
1495573599.07,31491,15.56,73948.3,1.27,-1.67,-0.69,0,*48
1495573600.25,31492,15.5,73948.0,1.27,-1.67,-0.69,0,*4B
1495573601.46,31493,15.56,73950.5,1.29,-1.67,-0.65,0,*48
1495573602.64,31494,15.5,73950.0,1.27,-1.67,-0.69,0,*4D
1495573603.83,31495,15.56,73950.5,1.27,-1.67,-0.57,0,*41
1495573605.02,31496,15.5,73944.3,1.27,-1.67,-0.57,0,*42
1495573606.22,31497,15.5,73950.0,1.29,-1.67,-0.57,0,*4D
1495573607.41,31498,15.5,73946.8,1.27,-1.67,-0.57,0,*4C
1495573608.62,31499,15.56,73948.8,1.29,-1.67,-0.53,0,*47
1495573609.83,31500,15.5,73948.3,1.29,-1.75,-0.53,0,*45
1495573611.01,31501,15.5,73946.5,1.27,-1.67,-0.53,0,*49
1495573612.2,31502,15.5,73950.0,1.27,-1.67,-0.53,0,*4A
1495573613.38,31503,15.5,73950.8,1.27,-1.67,-0.53,0,*4B
1495573614.57,31504,15.5,73950.5,1.27,-1.67,-0.41,0,*4F
1495573615.77,31505,15.56,73948.8,1.27,-1.67,-0.41,0,*4E
1495573616.98,31506,15.56,73948.5,1.29,-1.67,-0.45,0,*47
1495573618.19,31507,15.5,73950.0,1.29,-1.67,-0.33,0,*47
1495573619.4,31508,15.56,73948.8,1.29,-1.67,-0.33,0,*48
1495573620.59,31509,15.5,73948.0,1.27,-1.75,-0.41,0,*41
1495573621.78,31510,15.56,73950.3,1.27,-1.67,-0.33,0,*4F
1495573622.96,31511,15.56,73950.8,1.27,-1.67,-0.29,0,*45
1495573624.17,31512,15.5,73948.3,1.29,-1.67,-0.29,0,*48
1495573625.38,31513,15.5,73950.0,1.29,-1.67,-0.33,0,*42
1495573626.56,31514,15.5,73948.0,1.27,-1.67,-0.29,0,*40
1495573627.75,31515,15.5,73948.5,1.27,-1.63,-0.29,0,*45
1495573628.95,31516,15.56,73950.5,1.29,-1.63,-0.29,0,*48
1495573630.18,31517,15.5,73946.8,1.29,-1.55,-0.27,0,*42
1495573631.4,31518,15.5,73946.5,1.29,-1.55,-0.19,0,*40
1495573632.58,31519,15.5,73946.5,1.27,-1.51,-0.19,0,*4B
1495573633.78,31520,15.5,73948.0,1.29,-1.51,-0.29,0,*4C
1495573635.02,31521,15.5,73946.5,1.27,-1.43,-0.27,0,*4E
1495573636.28,31522,15.5,73950.0,1.29,-1.43,-0.27,0,*43
1495573637.55,31523,15.56,73948.8,1.29,-1.39,-0.27,0,*4F
1495573638.79,31524,15.5,73944.0,1.29,-1.39,-0.19,0,*45
1495573640.05,31525,15.5,73946.0,1.29,-1.43,-0.27,0,*44
1495573641.24,31526,15.5,73948.5,1.27,-1.29,-0.19,0,*48
1495573642.48,31527,15.56,73948.0,1.29,-1.29,-0.27,0,*4A
1495573643.7,31528,15.5,73948.3,1.29,-1.29,-0.19,0,*48
1495573644.91,31529,15.5,73948.0,1.27,-1.21,-0.27,0,*42
1495573646.13,31530,15.5,73950.8,1.27,-1.21,-0.27,0,*4A
1495573647.32,31531,15.5,73950.0,1.27,-1.17,-0.19,0,*43
1495573648.58,31532,15.5,73948.5,1.29,-1.09,-0.27,0,*4C
1495573649.79,31533,15.5,73948.3,1.27,-1.09,-0.19,0,*4E
1495573651.01,31534,15.5,73948.0,1.27,-1.01,-0.19,0,*41
1495573652.23,31535,15.56,73952.0,1.27,-1.01,-0.19,0,*40
1495573653.47,31536,15.5,73950.8,1.29,-1.01,-0.19,0,*4D
1495573654.71,31537,15.5,73948.0,1.29,-1.01,-0.19,0,*4C
1495573655.93,31538,15.5,73948.8,1.27,-0.93,-0.27,0,*7A
1495573657.14,31539,15.5,73950.3,1.27,-0.89,-0.19,0,*7D
1495573658.36,31540,15.5,73950.3,1.27,-0.89,-0.19,0,*73
1495573659.57,31541,15.5,73950.5,1.27,-0.89,-0.19,0,*72
1495573660.78,31542,15.56,73952.0,1.27,-0.89,-0.19,0,*71
1495573661.96,31543,15.56,73948.3,1.27,-0.77,-0.19,0,*71
1495573663.17,31544,15.5,73948.5,1.29,-0.77,-0.19,0,*78
1495573664.38,31545,15.5,73948.5,1.27,-0.77,-0.27,0,*7A
1495573665.59,31546,15.5,73950.8,1.29,-0.77,-0.19,0,*7A
1495573666.78,31547,15.5,73946.8,1.27,-0.77,-0.15,0,*79
1495573667.98,31548,15.5,73946.8,1.29,-0.69,-0.07,0,*44
1495573669.19,31549,15.5,73948.3,1.29,-0.69,-0.15,0,*76
1495573670.4,31550,15.56,73950.5,1.29,-0.69,-0.15,0,*7E
1495573671.59,31551,15.56,73948.0,1.27,-0.69,-0.19,0,*7D
1495573672.8,31552,15.5,73946.5,1.29,-0.69,-0.19,0,*70
1495573674.01,31553,15.56,73948.5,1.29,-0.65,-0.19,0,*7D
1495573675.22,31554,15.56,73944.5,1.29,-0.69,-0.15,0,*7A
1495573676.43,31555,15.56,73950.8,1.29,-0.65,-0.15,0,*77
1495573677.62,31556,15.5,73944.0,1.27,-0.65,-0.15,0,*7A
1495573678.83,31557,15.5,73946.0,1.29,-0.65,-0.15,0,*75
1495573680.01,31558,15.5,73944.5,1.27,-0.65,-0.19,0,*78
1495573681.22,31559,15.5,73944.3,1.29,-0.65,-0.19,0,*77
1495573682.43,31560,15.5,73946.3,1.29,-0.65,-0.19,0,*7D
1495573683.64,31561,15.5,73946.0,1.29,-0.65,-0.19,0,*7C
1495573684.87,31562,15.5,73946.0,1.29,-0.65,-0.27,0,*72
1495573686.08,31563,15.5,73944.3,1.29,-0.57,-0.19,0,*7F
1495573687.29,31564,15.5,73946.8,1.29,-0.65,-0.19,0,*79
1495573688.5,31565,15.5,73946.5,1.29,-0.57,-0.15,0,*75
1495573689.71,31566,15.5,73946.5,1.29,-0.53,-0.15,0,*72
1495573690.92,31567,15.56,73948.3,1.29,-0.65,-0.15,0,*76
1495573692.11,31568,15.5,73948.0,1.27,-0.57,-0.19,0,*7A
1495573693.32,31569,15.56,73950.5,1.29,-0.57,-0.19,0,*75
1495573694.53,31570,15.5,73950.3,1.29,-0.65,-0.19,0,*7C
1495573695.74,31571,15.5,73948.3,1.29,-0.57,-0.15,0,*70
1495573696.95,31572,15.5,73946.3,1.29,-0.65,-0.15,0,*72
1495573698.14,31573,15.56,73948.5,1.27,-0.65,-0.15,0,*7D
1495573699.35,31574,15.5,73948.8,1.29,-0.69,-0.15,0,*78
1495573700.56,31575,15.5,73946.8,1.29,-0.65,-0.15,0,*75
1495573701.77,31576,15.5,73950.0,1.29,-0.57,-0.15,0,*77
1495573702.97,31577,15.5,73948.8,1.29,-0.65,-0.07,0,*44
1495573704.19,31578,15.5,73948.0,1.29,-0.57,-0.15,0,*79
1495573705.37,31579,15.5,73948.3,1.27,-0.53,-0.15,0,*72
1495573706.58,31580,15.5,73948.3,1.29,-0.53,-0.07,0,*49
1495573707.79,31581,15.5,73948.5,1.29,-0.57,-0.15,0,*7F
1495573709.0,31582,15.5,73948.8,1.29,-0.53,-0.15,0,*78
1495573710.2,31583,15.5,73950.0,1.29,-0.57,-0.07,0,*4E
1495573711.41,31584,15.5,73950.5,1.29,-0.57,-0.15,0,*7A
1495573712.62,31585,15.5,73948.5,1.29,-0.53,-0.07,0,*4C
1495573713.8,31586,15.5,73944.8,1.27,-0.53,-0.07,0,*41
1495573715.0,31587,15.5,73948.5,1.29,-0.45,-0.07,0,*49
1495573716.21,31588,15.5,73948.8,1.29,-0.41,-0.03,0,*46
1495573717.41,31589,15.5,73950.5,1.29,-0.45,-0.07,0,*47